AirNav   Air Wisconsin Up To $57,000 Bonus
 
 1616 users online  

AL79 Bartlett Ranch Airport
Pike Road, Alabama, USA

GOING TO PIKE ROAD?


FAA INFORMATION EFFECTIVE 20 JUNE 2019

Location

FAA Identifier: AL79
Lat/Long: 32-16-10.5110N / 086-05-55.8590W
32-16.175183N / 086-05.930983W
32.2695864 / -86.0988497
(estimated)
Elevation: 305 ft. / 93 m (estimated)
Variation: 00W (1985)
From city: 1 mile SE of PIKE ROAD, AL
Time zone: UTC -5 (UTC -6 during Standard Time)
Zip code: 36064

Airport Operations

Airport use: Private use. Permission required prior to landing
Activation date: 11/1987
Control tower: no
ARTCC: ATLANTA CENTER
FSS: ANNISTON FLIGHT SERVICE STATION
Attendance: UNATNDD
Wind indicator: yes
Segmented circle: no

Airport Communications

WX ASOS at MGM (15 nm W): PHONE 334-288-0445

Nearby radio navigation aids

VOR radial/distance  VOR name  Freq  Var
MGMr073/11.6MONTGOMERY VORTAC112.1003E
TGEr237/25.3TUSKEGEE VOR/DME117.3002E

 
NDB name  Hdg/Dist  Freq  Var  ID
BLOOD005/26.336504WTOI - --- ..

Airport Services

Fuel available: 100LL

Runway Information

Runway 18/36

Dimensions: 2500 x 200 ft. / 762 x 61 m
Surface: turf
RUNWAY 18  RUNWAY 36
Traffic pattern: leftleft
Obstructions: none80 ft. pline, 1320 ft. from runway

Airport Ownership and Management from official FAA records

Ownership: Privately-owned
Owner: H B BARTLETT
BARTLETT RANCH
PIKE ROAD, AL 36064
Phone 205-288-9554
Manager: H B BARTLETT
BARTLETT RANCH
PIKE ROAD, AL 36064
Phone 205-288-9554

Airport Operational Statistics

Aircraft based on the field: 5
Single engine airplanes: 5
    

Additional Remarks

FOR CD CTC ATLANTA ARTCC AT 770-210-7692.

Instrument Procedures

There are no published instrument procedures at AL79.

Some nearby airports with instrument procedures:

KMGM - Montgomery Regional Airport (Dannelly Field) (15 nm W)
KMXF - Maxwell Air Force Base (15 nm NW)
08A - Wetumpka Municipal Airport (19 nm NW)
1A9 - Prattville Airport - Grouby Field (23 nm NW)
06A - Moton Field Municipal Airport (24 nm NE)
 
Loc | Ops | Rwys | IFR | FBO | Links
Com | Nav | Svcs | Stats | Notes
Area around AL79 (Bartlett Ranch Airport)
 
Road maps at: MapQuest Bing Google
 
Aerial photo
No photo
 
Sectional chart

 
Airport distance calculator
Flying to Bartlett Ranch Airport? Find the distance to fly.

From to AL79

Sunrise and sunset
Times for 25-Jun-2019
 Local
(UTC-5)
 Zulu
(UTC)
Morning civil twilight05:1210:12
Sunrise05:4010:40
Sunset19:5400:54
Evening civil twilight20:2201:22

Current date and time
Zulu (UTC)  25-Jun-2019 17:14:57
Local (UTC-5)  25-Jun-2019 12:14:57
 
METAR
KMXF 
15nm NW 
251556Z AUTO 22004KT 10SM FEW024 30/23 A3008 RMK AO2 SLP187 T02990226
KMGM 
15nm W 
251653Z 24007KT 10SM CLR 31/22 A3008 RMK AO2 SLP184 T03110222
K1A9 
23nm NW 
251655Z AUTO 27006KT 10SM CLR 30/22 A3008 RMK AO2 T03000221
KTOI 
26nm S 
251653Z AUTO 32010KT 270V330 10SM CLR 31/22 A3010 RMK AO2 SLP187 T03110217
TAF
KMXF 
15nm NW 
251114Z 2511/2617 VRB05KT 9999 BKN200 QNH2995INS BECMG 2519/2520 31007KT 9999 BKN035 BKN250 QNH2996INS BECMG 2603/2604 34005KT 9999 BKN250 QNH2995INS TX35/2520Z TN21/2608Z
KMGM 
15nm W 
251129Z 2512/2612 23005KT P6SM BKN250 FM251700 28008KT P6SM FEW035 FM260100 27002KT P6SM SCT250
NOTAMs
Click for the latest NOTAMs
NOTAMs are issued by the DoD/FAA and will open in a separate window not controlled by AirNav.

 

 
 

Would you like to see your business listed on this page?

 If your business provides an interesting product or service to pilots, flight crews, aircraft, or users of the Bartlett Ranch Airport, you should consider listing it here.  To start the listing process, click on the button below
 
Add a business
 

Other Pages about Bartlett Ranch Airport

Update a link
 
Copyright © AirNav, LLC. All rights reserved. Privacy Policy  Contact